Regional Weather Roundup
Issued by NWS Portland, ME

Home | Current Version | Previous Version | Text Only | Print | Product List | Glossary On
Versions: 1 2 3 4 5 6 7 8 9 10 11 12 13 14 15 16 17 18 19 20 21 22 23 24 25 26 27 28 29 30 31 32 33 34 35 36 37 38 39 40 41 42 43 44 45 46 47 48 49 50
000
ASUS41 KGYX 300710
RWRGYX
WEATHER ROUNDUP FOR MAINE AND NEW HAMPSHIRE
NATIONAL WEATHER SERVICE GRAY ME
300 AM EDT WED JUL 30 2014

MEZ002-005-006-010-012-015-018-020-021-024-026-027-029-300800-
MAINE

CITY           SKY/WX    TMP DP  RH WIND       PRES   REMARKS
PORTLAND       CLOUDY    60  58  92 N5        29.96S
SANFORD        CLOUDY    57  54  88 CALM      29.96S
BAR HARBOR     PTCLDY    57  55  94 CALM      29.98S
WISCASSET      CLEAR     57  55  93 CALM      29.97F
ROCKLAND       CLEAR     57  55  94 N3        29.95F
FRYEBURG       CLOUDY    59  57  93 CALM      29.98S
LEWISTONAUBURN CLOUDY    57  52  82 CALM      29.97S
AUGUSTA        CLOUDY    59  55  87 N6        29.98S
WATERVILLE     MOCLDY    57  54  88 N6        29.95R
BANGOR         MOCLDY    59  56  89 CALM      29.98S
GREENVILLE       N/A     53  50  89 NE3       29.98S
MILLINOCKET    MOCLDY    52  50  93 CALM      30.00R
HOULTON        CLEAR     48  46  93 CALM      29.98R
PRESQUE ISLE   MOCLDY    50  46  87 CALM      29.98R
FRENCHVILLE    CLEAR     55  51  86 SW5       29.96S
CARIBOU        PTCLDY    53  51  93 CALM      29.97R
$$

NHZ002-005-008-009-011-012-014-300800-
NEW HAMPSHIRE

CITY           SKY/WX    TMP DP  RH WIND       PRES   REMARKS
PORTSMOUTH     PTCLDY    59  57  92 NW5       29.94S
ROCHESTER      PTCLDY    56  53  90 NW3       29.95F
NASHUA         CLOUDY    62  59  90 CALM      29.97S
MANCHESTER     CLOUDY    64  56  75 NW5       29.95S
CONCORD        CLOUDY    56  55  97 CALM      29.97S
LACONIA          N/A     55  52  88 CALM      29.97S
PLYMOUTH       CLOUDY    52  51  96 CALM      29.99S
BERLIN         CLOUDY    51  49  92 N3        30.01R
WHITEFIELD     FOG       49  48  97 CALM      30.00S VSB 1/2
JAFFREY        CLOUDY    56  54  93 CALM      29.99S
LEBANON        CLOUDY    54  51  90 CALM      29.99R
MT WASHINGTON  MOCLDY    41  37  87 SW5         N/A
$$

VTZ005-007-008-300800-
VERMONT

CITY           SKY/WX    TMP DP  RH WIND       PRES   REMARKS
ST JOHNSBURY     N/A     49  48  97 MISG      29.99R
MONTPELIER     FOG       49  49 100 CALM      30.04R VSB 1/4
BURLINGTON     CLEAR     53  51  93 E5        29.98R
$$

MAZ007-012-024-CTZ003-RIZ002-NYZ038-NYZ072-300800-
SOUTHERN NEW ENGLAND AND NY

CITY           SKY/WX    TMP DP  RH WIND       PRES   REMARKS
BOSTON         MOCLDY    67  56  67 W3        29.95S
WORCESTER      MOCLDY    58  51  78 W6        29.98F
NANTUCKET      MOCLDY    63  61  93 W5        29.96F
PROVIDENCE     PTCLDY    62  55  77 W3        29.96F
HARTFORD       CLOUDY    61  55  81 NW6       29.96F
ALBANY         CLOUDY    62  53  72 CALM      29.98S
NEW YORK CITY  CLOUDY    68  53  58 NW6       29.96F
$$

ANZ081-ANZ082-ANZ150-NHZ014-MEZ023>029-300800-
COASTAL MARINE OBSERVATIONS

STATION/POSITION TIME  TEMP    WIND        PRES    WAVE
                       AIR SEA DIR/SP/G            HT/PER
                 (UTC) (F)     (DEG/KT/KT) (MB)    (FT/S)
MATINICUS ROCK   0700           80/  4/  4 1014.2F
PORTLAND WX BUOY 0700   61 60   80/  4/  6 1013.9F   3/ 8
WELLS            0700   59 52  340/  3/  3 1013.3S
ISLE OF SHOALS   0700   62     330/  5/  6 1013.6S
JEFFREYS LEDGE   0700      64                N/A     3/ 9
CASHES LEDGE BUO 0700   66 66  170/  6/  8 1013.6R   3/ 9
$$

.............KEY..............
   WCI - WIND CHILL
   TC  - TEMPERATURE IN CELSIUS
   VSB - VISIBILITY IN MILES
   HX  - HEAT INDEX
   FAIR- INDICATES FEW OR NO CLOUDS BELOW 12,000 FT, WITH NO
         SIGNIFICANT WEATHER AND/OR OBSTRUCTIONS TO VISIBILITY.




USA.gov is the U.S. government's official web portal to all federal, state and local government web resources and services.